Back to catalog

ARIANE 2 DEB

LostGTO
NORAD 29023·DEBRIS·🇫🇷 France

Launched Jan 27, 1989 from Guiana Space Centre

Loading…

TLE

StaleSource: Space-Track

Epoch: Mar 17, 2026, 02:24 UTC

1 29023U 89006AP  26076.10016226 -.00000285  00000-0 -75178-2 0  9995
2 29023   8.3889  17.0131 7077497 207.2662 341.2703  2.25188144 98027

Track ARIANE 2 DEB in real time with AllMySat

Download on the App Store